Date String (YYYY-MM-DD hh:mm:ss) UTC,Instrument flags,absolute air pressure of the measurement (hPa),sample flow rate (lpm),inlet stack bypass flow (lpm),air temperature of the measurement (°C),ambient temperature measured by the external sensor (°C),aerosol sample conditioner tube jacket temperature (°C),OPC LED temperature (°C),internal box temperature (°C),relative humidity of the measurement (%),span deviation,mass concentration of particles derived from Lorenz-Mie calculation of OPC scattering (μg/m³),mass concentration of particles derived from Lorenz-Mie calculation of OPC scattering (μg/m³),mass concentration of particles derived from Lorenz-Mie calculation of OPC scattering (μg/m³)
DateTimeUTC,F1_M11,P_M11,Q1_M11,Q2_M11,T1_M11,T2_M11,T3_M11,T4_M11,T5_M11,U1_M11,ZSPAN_M11,X0_M11,X2_M11,X1_M11
2023-10-12 14:00:00,SystemResetWarning,0813.8,4.99,000.00,027.7,026.2,000.0,036.2,029.4,21.5,0000.0,0004.01,0002.20,0001.83
2023-10-12 14:01:00,SystemResetWarning,0813.8,5.00,000.00,027.7,026.2,000.0,036.2,029.4,21.5,0000.0,0003.99,0002.20,0001.82
2023-10-12 14:02:00,SystemResetWarning,0813.8,4.99,000.00,027.7,026.2,000.0,036.2,029.4,21.5,0000.0,0004.34,0002.24,0001.81
2023-10-12 14:03:00,SystemResetWarning,0813.9,5.00,000.00,027.7,026.2,000.0,036.2,029.4,21.5,0000.0,0004.87,0002.30,0001.82
2023-10-12 14:04:00,SystemResetWarning,0813.9,5.00,000.00,027.7,026.2,000.0,036.2,029.4,21.6,0000.0,0004.87,0002.31,0001.81
2023-10-12 14:05:00,SystemResetWarning,0813.9,5.01,000.00,027.7,026.2,000.0,036.2,029.4,21.6,0000.0,0004.84,0002.29,0001.80
2023-10-12 14:06:00,SystemResetWarning,0813.9,5.01,000.00,027.7,026.3,000.0,036.2,029.4,21.6,0000.0,0004.85,0002.27,0001.79
2023-10-12 14:07:00,SystemResetWarning,0813.9,5.01,000.00,027.7,026.3,000.0,036.2,029.5,21.7,0000.0,0004.41,0002.26,0001.77
2023-10-12 14:08:00,SystemResetWarning,0813.9,5.00,000.00,027.7,026.3,000.0,036.2,029.4,21.7,0000.0,0003.99,0002.26,0001.77
2023-10-12 14:09:00,SystemResetWarning,0813.9,5.00,000.00,027.7,026.3,000.0,036.2,029.4,21.7,0000.0,0004.00,0002.27,0001.78
2023-10-12 14:10:00,SystemResetWarning,0813.9,5.00,000.00,027.7,026.3,000.0,036.2,029.5,21.8,0000.0,0004.01,0002.26,0001.78
2023-10-12 14:11:00,SystemResetWarning,0813.9,4.99,000.00,027.7,026.3,000.0,036.2,029.5,21.8,0000.0,0003.82,0002.22,0001.79
2023-10-12 14:12:00,SystemResetWarning,0813.9,4.99,000.00,027.7,026.2,000.0,036.2,029.4,21.8,0000.0,0003.78,0002.21,0001.81
2023-10-12 14:13:00,SystemResetWarning,0813.9,5.00,000.00,027.7,026.2,000.0,036.2,029.4,21.7,0000.0,0003.37,0002.16,0001.81
2023-10-12 14:14:00,SystemResetWarning,0813.9,5.01,000.00,027.7,026.2,000.0,036.2,029.4,21.7,0000.0,0003.04,0002.13,0001.80
2023-10-12 14:15:00,SystemResetWarning,0813.9,5.01,000.00,027.7,026.2,000.0,036.2,029.4,21.7,0000.0,0003.04,0002.13,0001.81
2023-10-12 14:16:00,SystemResetWarning,0813.9,5.00,000.00,027.7,026.2,000.0,036.2,029.5,21.6,0000.0,0003.17,0002.18,0001.82
2023-10-12 14:17:00,SystemResetWarning,0813.9,4.99,000.00,027.7,026.2,000.0,036.2,029.4,21.6,0000.0,0003.26,0002.21,0001.83
2023-10-12 14:18:00,SystemResetWarning,0813.9,5.00,000.00,027.7,026.3,000.0,036.2,029.4,21.5,0000.0,0003.34,0002.25,0001.86
2023-10-12 14:19:00,SystemResetWarning,0813.9,5.00,000.00,027.7,026.3,000.0,036.2,029.4,21.5,0000.0,0003.30,0002.24,0001.86
2023-10-12 14:20:00,SystemResetWarning,0813.9,5.01,000.00,027.8,026.3,000.0,036.2,029.5,21.4,0000.0,0003.25,0002.22,0001.85
2023-10-12 14:21:00,SystemResetWarning,0813.9,5.00,000.00,027.8,026.3,000.0,036.2,029.5,21.4,0000.0,0003.37,0002.21,0001.84
2023-10-12 14:22:00,SystemResetWarning,0813.9,5.00,000.00,027.8,026.3,000.0,036.2,029.5,21.4,0000.0,0004.53,0002.23,0001.84
2023-10-12 14:23:00,SystemResetWarning,0813.9,4.99,000.00,027.8,026.3,000.0,036.2,029.5,21.4,0000.0,0004.54,0002.23,0001.83
2023-10-12 14:24:00,SystemResetWarning,0813.9,4.99,000.00,027.8,026.3,000.0,036.2,029.5,21.4,0000.0,0004.57,0002.24,0001.83
2023-10-12 14:25:00,SystemResetWarning,0813.9,5.00,000.00,027.8,026.3,000.0,036.2,029.5,21.3,0000.0,0004.41,0002.21,0001.83
2023-10-12 14:26:00,SystemResetWarning,0813.9,5.01,000.00,027.8,026.3,000.0,036.2,029.5,21.3,0000.0,0004.42,0002.22,0001.82
2023-10-12 14:27:00,SystemResetWarning,0813.9,5.01,000.00,027.8,026.3,000.0,036.2,029.5,21.2,0000.0,0004.53,0002.20,0001.82
2023-10-12 14:28:00,SystemResetWarning,0813.9,5.01,000.00,027.8,026.3,000.0,036.2,029.5,21.1,0000.0,0004.52,0002.19,0001.80
2023-10-12 14:29:00,SystemResetWarning,0813.9,5.00,000.00,027.8,026.3,000.0,036.2,029.5,20.9,0000.0,0004.45,0002.16,0001.79
2023-10-12 14:30:00,SystemResetWarning,0813.9,4.99,000.00,027.8,026.3,000.0,036.2,029.5,20.8,0000.0,0004.46,0002.16,0001.80
2023-10-12 14:31:00,SystemResetWarning,0813.9,4.99,000.00,027.8,026.3,000.0,036.2,029.5,20.8,0000.0,0004.60,0002.19,0001.82
2023-10-12 14:32:00,SystemResetWarning,0813.9,4.99,000.00,027.8,026.3,000.0,036.2,029.5,20.8,0000.0,0004.53,0002.21,0001.83
2023-10-12 14:33:00,SystemResetWarning,0813.9,5.00,000.00,027.8,026.3,000.0,036.2,029.5,20.8,0000.0,0003.33,0002.18,0001.83
2023-10-12 14:34:00,SystemResetWarning,0813.9,5.00,000.00,027.8,026.3,000.0,036.2,029.5,20.8,0000.0,0003.22,0002.14,0001.82
2023-10-12 14:35:00,SystemResetWarning,0813.9,5.00,000.00,027.8,026.3,000.0,036.2,029.5,20.9,0000.0,0003.13,0002.09,0001.81
2023-10-12 14:36:00,SystemResetWarning,0813.9,5.00,000.00,027.8,026.3,000.0,036.2,029.5,21.2,0000.0,0003.18,0002.12,0001.81
2023-10-12 14:37:00,SystemResetWarning,0813.9,5.00,000.00,027.8,026.2,000.0,036.2,029.4,21.6,0000.0,0003.19,0002.12,0001.81
2023-10-12 14:38:00,SystemResetWarning,0813.9,5.01,000.00,027.8,026.2,000.0,036.2,029.5,21.4,0000.0,0002.94,0002.09,0001.81
2023-10-12 14:39:00,SystemResetWarning,0813.8,5.00,000.00,027.8,026.2,000.0,036.2,029.4,21.0,0000.0,0002.82,0002.06,0001.81
2023-10-12 14:40:00,SystemResetWarning,0813.9,5.00,000.00,027.8,026.2,000.0,036.2,029.4,20.8,0000.0,0002.78,0002.05,0001.81
2023-10-12 14:41:00,SystemResetWarning,0813.9,4.99,000.00,027.8,026.2,000.0,036.2,029.4,21.1,0000.0,0002.75,0002.04,0001.80
2023-10-12 14:42:00,SystemResetWarning,0813.9,5.00,000.00,027.8,026.2,000.0,036.2,029.4,21.3,0000.0,0002.72,0002.05,0001.79
2023-10-12 14:43:00,SystemResetWarning,0813.9,4.99,000.00,027.8,026.2,000.0,036.2,029.4,21.3,0000.0,0002.62,0002.02,0001.78
2023-10-12 14:44:00,SystemResetWarning,0813.9,5.00,000.00,027.8,026.2,000.0,036.2,029.4,21.2,0000.0,0002.62,0001.99,0001.76
2023-10-12 14:45:00,SystemResetWarning,0813.9,5.00,000.00,027.8,026.2,000.0,036.2,029.4,21.1,0000.0,0002.78,0002.00,0001.77
2023-10-12 14:46:00,SystemResetWarning,0813.9,5.00,000.00,027.8,026.2,000.0,036.2,029.4,21.2,0000.0,0002.96,0002.07,0001.78
2023-10-12 14:47:00,SystemResetWarning,0813.9,5.00,000.00,027.7,026.2,000.0,036.2,029.4,21.3,0000.0,0003.03,0002.10,0001.77
2023-10-12 14:48:00,SystemResetWarning,0813.9,5.00,000.00,027.8,026.2,000.0,036.2,029.4,21.2,0000.0,0003.06,0002.09,0001.77
2023-10-12 14:49:00,SystemResetWarning,0813.8,5.00,000.00,027.8,026.2,000.0,036.2,029.4,21.5,0000.0,0003.40,0002.09,0001.76
2023-10-12 14:50:00,SystemResetWarning,0813.8,5.01,000.00,027.8,026.2,000.0,036.2,029.4,21.4,0000.0,0003.53,0002.09,0001.75
2023-10-12 14:51:00,SystemResetWarning,0813.7,5.01,000.00,027.8,026.2,000.0,036.2,029.4,20.9,0000.0,0003.64,0002.10,0001.75
2023-10-12 14:52:00,SystemResetWarning,0813.7,4.99,000.00,027.8,026.2,000.0,036.2,029.4,20.7,0000.0,0003.67,0002.11,0001.75
2023-10-12 14:53:00,SystemResetWarning,0813.7,4.99,000.00,027.8,026.2,000.0,036.2,029.4,21.1,0000.0,0003.71,0002.13,0001.75
2023-10-12 14:54:00,SystemResetWarning,0813.7,4.99,000.00,027.8,026.2,000.0,036.2,029.4,21.3,0000.0,0003.71,0002.13,0001.75
2023-10-12 14:55:00,SystemResetWarning,0813.7,5.01,000.00,027.8,026.2,000.0,036.2,029.4,21.5,0000.0,0003.73,0002.16,0001.75
2023-10-12 14:56:00,SystemResetWarning,0813.7,5.00,000.00,027.8,026.2,000.0,036.2,029.4,22.1,0000.0,0003.70,0002.20,0001.76
2023-10-12 14:57:00,SystemResetWarning,0813.7,5.00,000.00,027.8,026.2,000.0,036.2,029.5,22.5,0000.0,0003.61,0002.17,0001.75
2023-10-12 14:58:00,SystemResetWarning,0813.8,4.99,000.00,027.8,026.2,000.0,036.2,029.5,22.4,0000.0,0003.48,0002.13,0001.75
2023-10-12 14:59:00,SystemResetWarning,0813.8,4.99,000.00,027.8,026.3,000.0,036.2,029.5,22.3,0000.0,0003.48,0002.12,0001.76
